RH
76 76 76 76 74 74 74 74 74 73 72 73 74 74 74 74 74 75 76 76 74 73 72 71 71 71 72 74 75 77 77 79 80 80 82 83 84 86 88 91 95 99
70 72 73 74 74 74 73 72 73 73 74 74 72 71 70 69 69 69 69 69 67 67 67 67 68 69 70 72 73 75 75 76 78 79 80 81 83 85 87 90 93 96
67 69 71 73 74 74 74 73 73 73 72 71 69 69 68 68 68 68 68 68 68 68 68 67 67 67 67 68 68 70 70 72 73 75 76 78 81 84 87 90 93 94
71 73 75 76 76 75 75 74 73 73 72 73 73 74 75 75 76 75 74 73 71 69 66 64 62 61 61 62 62 62 63 65 66 68 71 74 77 81 83 85 87 90
74 75 75 75 74 74 76 76 77 79 80 82 83 83 83 82 80 78 74 71 68 65 62 61 60 59 59 59 59 59 59 60 61 62 64 66 68 70 71 71 72 75
76 77 76 77 78 79 81 83 84 86 86 86 85 83 81 77 74 71 68 66 64 63 61 60 59 59 59 59 58 59 59 59 59 59 59 60 60 60 61 60 61 62
79 79 79 79 79 80 81 82 82 82 81 80 79 77 74 72 70 69 67 66 65 65 64 63 63 62 62 62 61 61 61 61 60 60 60 60 60 59 59 59 59 59
80 79 80 80 81 83 84 84 84 83 82 80 77 75 72 69 66 63 60 58 57 56 55 55 55 56 56 58 60 61 62 62 63 64 64 63 63 62 62 62 62 62
79 80 80 80 80 81 80 78 76 73 68 64 60 56 52 48 43 40 37 35 34 35 35 36 37 37 38 39 41 43 45 47 50 54 57 61 64 66 68 69 68 67
62 63 64 64 65 66 67 67 66 64 61 59 58 56 53 49 45 42 39 37 36 34 34 35 34 33 31 28 26 25 24 25 26 29 34 40 47 54 62 68 73 75
59 61 63 65 67 70 72 73 73 73 71 68 67 66 62 58 54 51 47 43 39 36 33 32 31 29 26 23 20 17 16 15 14 14 15 16 20 25 33 42 51 59
75 77 79 80 80 81 81 82 81 80 77 73 71 70 67 64 60 56 51 45 39 33 29 26 24 23 22 20 17 15 14 12 11 11 10 10 11 12 15 19 23 29
87 88 89 88 88 87 86 85 84 82 80 77 75 74 72 69 66 62 57 52 46 39 32 27 25 23 22 20 18 15 14 13 11 11 10 10 11 11 12 13 14 16
89 88 88 86 85 84 84 83 82 80 78 75 72 70 68 65 61 58 54 49 45 40 35 30 27 25 22 19 17 15 13 12 11 11 11 11 11 12 12 13 13 15
85 83 80 78 77 76 76 76 75 74 72 69 66 62 57 54 50 47 43 40 36 33 30 27 25 23 21 19 17 16 14 14 13 12 13 13 13 13 14 14 15 16
81 79 77 76 74 74 73 73 72 71 69 65 61 56 51 46 42 39 36 33 30 28 26 24 22 21 19 18 17 17 16 15 14 14 14 14 14 14 15 16 17 18
75 74 73 72 72 71 70 69 68 66 65 63 60 56 51 47 42 38 35 31 28 26 24 22 20 19 18 18 17 18 19 18 18 18 17 16 16 16 17 18 19 20
69 68 66 65 64 63 62 60 59 58 56 54 52 50 47 44 40 37 33 31 28 26 24 22 21 21 20 21 21 21 22 24 26 25 21 19 19 20 21 22 22 22
64 63 61 59 56 53 51 49 47 46 45 43 42 41 39 37 35 33 31 30 28 26 25 25 24 23 22 22 23 23 24 26 29 27 23 22 22 22 24 25 26 26
61 59 57 54 50 46 43 40 38 36 35 34 33 33 32 32 31 31 31 31 31 30 29 28 27 26 25 25 24 25 26 28 28 26 24 24 23 24 26 28 28 29
51 50 49 47 44 42 40 38 37 36 34 34 33 32 32 32 32 32 32 33 33 32 31 30 29 28 27 27 27 26 27 29 29 27 26 26 25 26 28 30 31 33
42 42 41 39 38 37 36 36 36 36 36 36 35 34 34 34 34 34 34 34 33 33 32 32 32 32 31 30 29 29 30 31 31 31 30 29 29 30 31 32 33 34
38 38 38 37 36 35 34 35 35 35 35 36 36 36 35 35 35 35 35 35 35 35 36 35 35 35 35 34 33 34 35 35 35 35 35 33 33 33 34 34 34 35
35 36 36 37 37 37 36 37 37 37 37 38 38 38 37 37 37 37 37 39 40 41 41 40 39 39 38 38 37 37 38 38 38 38 37 36 35 34 35 36 35 35
36 36 37 38 40 41 42 42 42 42 43 44 44 42 41 40 40 39 40 42 43 44 45 44 44 43 42 41 40 40 41 40 41 41 39 38 38 38 38 39 39 38
42 41 41 42 43 45 47 48 48 50 52 54 53 51 49 46 45 44 44 45 46 47 48 48 48 47 46 45 43 42 43 44 46 47 46 45 45 44 43 43 43 43
Wind_Speed
16 17 17 18 18 19 19 20 19 20 20 20 20 20 19 19 18 17 17 16 15 14 14 14 15 15 16 16 17 17 18 18 18 19 19 20 20 21 21 22 23 24
17 17 18 19 19 19 20 20 20 20 20 20 20 19 19 18 17 16 16 15 14 14 14 15 15 15 15 16 16 17 17 17 17 17 18 18 19 19 20 20 21 21
18 19 19 19 19 19 19 19 19 20 20 20 20 19 18 17 17 16 16 15 15 15 16 15 15 15 15 15 15 16 16 16 16 17 17 17 17 18 18 18 18 18
17 18 18 17 17 17 18 18 19 20 20 19 19 18 18 17 17 16 16 15 15 15 15 15 14 14 14 15 15 15 16 16 16 17 17 17 17 18 17 16 17 16
15 15 16 16 16 17 18 18 18 18 18 18 18 18 17 17 16 15 15 14 14 14 14 14 14 14 15 15 15 16 16 16 17 17 18 18 18 18 18 17 18 18
14 15 16 16 16 17 17 16 16 16 16 16 16 16 15 15 14 14 14 14 14 14 14 14 14 14 15 15 15 16 16 17 17 17 18 18 18 19 19 19 19 19
14 14 14 14 14 14 13 13 13 13 14 14 13 13 13 12 12 13 12 12 12 12 12 12 13 13 14 14 15 15 16 17 17 18 18 19 19 20 20 21 21 21
12 12 12 11 11 11 10 10 10 10 10 10 10 9 9 9 9 8 8 8 8 8 9 9 10 11 12 12 13 14 15 16 17 18 18 19 20 21 21 22 23 23
8 8 8 8 8 8 8 7 7 7 6 6 6 6 6 6 6 6 6 7 7 8 9 10 11 11 12 13 14 15 16 17 17 18 19 20 20 21 22 22 24 24
5 6 6 6 6 6 6 7 6 6 6 7 7 8 8 8 8 8 8 9 9 10 11 11 12 13 14 15 16 16 17 17 18 18 19 20 20 21 22 22 23 25
7 7 7 8 8 8 9 9 9 10 10 9 9 9 10 10 10 10 10 10 11 11 12 12 12 13 14 15 16 16 17 17 18 18 19 20 21 21 22 23 23 24
9 9 9 10 10 10 11 11 11 11 12 12 11 11 11 11 11 11 11 11 11 12 12 12 12 13 14 15 16 17 17 18 18 18 19 20 20 21 22 23 23 24
11 11 11 11 11 11 11 11 11 12 12 12 13 13 12 12 12 12 12 12 13 13 13 13 13 14 14 15 16 17 18 18 19 19 19 20 21 22 22 23 23 24
13 13 12 13 13 13 13 13 12 12 13 13 14 14 14 14 14 14 14 14 14 14 14 15 15 15 15 16 17 18 19 19 19 20 20 21 21 22 22 22 23 23
13 13 13 14 14 14 14 14 14 14 14 14 14 15 15 14 14 14 14 14 15 15 15 15 16 16 16 16 17 18 19 20 20 20 20 20 20 20 20 21 21 22
14 14 14 14 15 15 15 15 15 15 15 15 15 15 15 15 15 14 15 15 15 15 16 16 16 17 17 17 18 19 20 21 21 21 21 20 20 20 20 20 20 20
16 16 16 16 16 16 17 17 17 17 16 16 16 17 17 16 16 16 16 16 15 16 16 16 16 16 16 17 17 18 20 20 21 21 21 20 19 19 19 19 20 20
17 17 17 17 17 17 18 18 18 18 18 18 17 18 18 17 17 17 17 17 17 17 17 17 17 16 16 16 17 17 18 20 21 22 21 20 19 19 19 20 20 20
18 18 18 18 18 18 19 19 19 19 19 19 19 19 19 19 18 18 18 18 18 18 17 17 18 17 17 17 18 18 19 20 22 24 24 23 22 20 20 21 21 21
20 19 19 19 19 20 20 20 20 21 21 20 20 20 20 20 20 19 19 19 19 19 18 18 18 19 19 19 19 20 20 21 24 26 25 24 24 22 22 22 23 23
21 21 21 21 21 21 21 21 22 22 22 22 21 21 21 21 21 20 19 19 20 20 20 19 19 20 20 20 20 21 21 22 25 27 26 26 25 24 23 23 23 23
22 22 22 22 23 23 23 23 23 23 23 23 22 22 22 22 22 21 21 21 21 22 22 21 20 20 21 21 20 21 22 23 25 26 27 26 25 24 24 24 24 24
24 24 24 24 24 24 24 24 25 25 25 25 24 23 23 23 23 23 22 22 22 22 22 21 20 20 21 21 21 21 22 24 25 26 27 27 26 25 25 25 25 24
26 26 26 26 25 25 25 26 26 26 26 26 26 25 24 24 24 24 23 23 22 21 21 22 21 20 21 22 21 21 22 24 25 26 27 27 26 26 25 25 25 25
28 28 28 27 27 27 27 27 28 27 27 27 27 26 26 25 25 25 25 24 23 22 22 22 22 21 21 22 22 22 22 24 25 26 27 27 26 26 26 25 25 25
29 30 29 29 29 29 29 29 29 29 28 28 27 27 26 26 25 26 26 24 23 23 23 22 23 22 22 22 23 23 23 24 24 25 26 27 26 26 26 26 26 25
Wind_Direction
224 224 224 226 228 230 232 235 236 237 239 241 244 247 248 250 251 254 257 258 261 263 266 267 267 267 266 264 262 260 259 258 257 257 255 255 257 258 259 260 258 258
230 230 230 231 232 233 234 235 236 238 240 243 245 246 248 249 251 254 257 260 261 262 262 263 263 263 262 262 261 259 260 260 258 257 256 255 256 257 259 258 258 258
235 235 235 236 237 237 237 238 240 242 243 244 244 244 246 249 251 254 257 259 260 260 260 261 261 261 261 260 260 260 260 260 258 256 256 256 257 257 258 258 258 259
241 241 241 242 242 242 242 242 243 244 244 245 246 247 249 250 252 253 253 253 254 255 257 259 260 260 260 260 260 261 261 260 258 256 256 255 255 256 256 256 257 257
246 246 246 245 244 244 243 244 245 246 247 249 250 251 252 252 251 251 250 250 250 252 254 255 258 258 259 260 261 261 260 259 257 255 254 253 252 253 254 253 254 255
248 246 245 244 244 245 244 244 246 248 250 251 251 251 250 249 249 247 247 247 248 250 252 254 256 257 259 260 262 263 262 262 261 260 259 259 257 257 258 257 256 257
250 246 244 243 243 243 243 244 246 248 249 249 249 249 249 248 248 247 246 246 246 247 250 253 255 257 259 260 262 263 263 263 264 264 265 266 266 266 266 265 264 262
249 246 244 242 241 241 241 241 242 243 244 245 245 246 246 246 245 245 244 245 245 246 249 253 257 260 262 263 264 264 264 264 264 265 266 266 266 266 266 266 266 265
247 244 242 238 236 236 238 237 236 239 242 247 251 253 254 253 254 257 259 261 261 259 258 258 260 263 265 265 265 264 263 263 264 264 265 264 264 264 264 264 265 265
259 257 253 251 251 253 256 258 259 262 265 268 270 271 274 275 274 275 275 275 276 273 271 269 267 268 269 268 268 267 266 266 266 266 266 267 268 268 267 266 265 266
285 282 281 278 277 276 276 277 277 279 282 285 285 282 282 283 282 282 283 284 285 284 282 281 279 277 275 274 274 274 273 273 273 273 274 274 274 273 272 271 270 270
293 289 287 285 284 283 281 281 282 283 285 289 290 288 285 286 286 287 287 287 288 288 287 285 283 280 278 277 277 277 278 277 277 276 275 275 275 274 274 274 273 273
294 294 294 292 292 289 287 287 288 288 288 290 293 294 293 294 295 294 294 293 292 290 289 288 286 283 281 280 280 279 279 279 279 279 278 277 276 275 276 276 276 276
302 303 304 305 304 302 301 299 299 300 299 300 301 302 301 302 302 302 301 299 297 295 294 292 290 289 286 284 282 280 278 277 277 276 276 275 275 276 276 277 277 277
310 310 310 310 309 309 308 306 305 306 305 305 304 303 303 304 304 302 301 299 297 296 294 292 290 289 287 285 284 282 280 279 279 278 276 275 275 275 276 276 276 276
313 312 312 311 309 308 307 306 306 306 305 304 303 302 302 302 302 300 298 296 296 293 292 291 289 287 286 284 283 283 282 281 281 279 278 277 278 279 280 279 278 276
312 312 311 310 308 307 306 305 304 304 303 303 301 301 301 301 302 300 298 296 294 292 289 286 284 282 281 280 279 279 280 281 280 278 277 279 281 282 282 280 278 277
309 308 307 305 305 304 303 302 302 301 301 301 300 301 301 302 302 300 298 296 294 292 290 288 286 286 285 285 285 285 286 287 286 284 284 287 287 286 285 283 282 281
304 303 302 302 301 301 300 300 300 300 301 301 302 302 302 302 302 300 298 297 295 294 294 293 293 292 292 291 290 289 290 288 286 286 289 292 292 292 291 289 288 287
302 301 301 300 300 299 299 299 300 300 301 302 303 303 303 302 302 301 300 299 297 297 296 296 296 295 293 292 291 289 288 286 284 287 290 292 293 293 293 291 291 290
300 299 300 300 299 299 299 298 299 299 300 301 301 301 301 301 300 300 299 298 297 297 297 296 296 294 292 290 288 287 285 284 284 286 288 289 290 291 290 290 290 290
298 299 299 299 299 299 298 298 298 298 299 299 299 298 298 297 297 296 296 296 295 295 295 294 294 292 290 288 286 284 283 282 282 284 285 286 288 289 289 289 289 289
297 298 298 297 297 296 296 295 295 295 296 296 296 296 295 294 293 293 293 293 293 293 293 292 292 291 289 287 286 285 284 283 284 285 286 287 289 289 289 288 288 288
296 296 295 294 293 292 292 292 292 292 293 294 294 293 292 292 292 291 291 291 291 292 292 292 292 291 289 289 288 287 286 285 285 285 285 287 287 287 287 287 286 285
294 294 293 292 291 290 290 289 289 290 290 291 292 291 290 289 289 288 289 289 290 291 291 291 292 291 289 289 289 288 287 285 285 285 285 287 287 287 287 286 286 285
292 291 291 290 290 290 289 288 288 289 290 290 290 289 287 286 286 285 285 286 288 289 289 290 291 291 291 292 292 292 290 288 288 288 288 289 289 288 287 287 286 287